Location: Dehesa de la Cepeda
(40.6574°N, 4.3013°W)
Time: 19:53:29
(UTC+00:00)

Cosmos 1076 Rocket - Pass Details

Date: 05 July 2020
Orbit: 589 x 613 km, 82.5° (Epoch: 05 August)

Event Time Altitude Azimuth Distance (km) Brightness Sun altitude
Exits shadow 23:12:53 51° 266° (W) 757 4.0 -24.7°
Maximum altitude 23:13:09 52° 280° (W) 749 4.0 -24.7°
Drops below altitude 10° 23:17:21 10° 358° (N) 1,943 7.1 -24.9°
Sets 23:19:36 0° 3° (N) 2,845 8.1 -25.0°
